Location: Unspecified
(0.0000°N, 0.0000°E)
Time: 23:24:11
(UTC+00:00)

Explorer 7 - Visible Passes

Search period start: 27 October 2021 00:00
Search period end: 06 November 2021 00:00
Orbit: 484 x 676 km, 50.3° (Epoch: 27 October)

Date Brightness Start Highest point End Pass type
(mag) Time Alt. Az. Time Alt. Az. Time Alt. Az.
27 Oct 9.5 03:52:16 14° NNE 03:54:39 19° NE 03:58:03 10° E visible
28 Oct 8.5 03:57:15 28° NNE 03:58:46 35° NE 04:03:13 10° ESE visible
29 Oct 7.3 04:02:10 60° N 04:02:52 70° NE 04:07:44 10° SE visible
30 Oct 7.3 04:07:00 60° SW 04:07:00 60° SW 04:11:47 10° SSE visible
31 Oct 8.3 04:11:42 29° SW 04:11:42 29° SW 04:15:22 10° S visible
01 Nov 9.2 04:16:19 15° SW 04:16:19 15° SW 04:18:16 10° SSW visible
